Miscellaneous Local Product
Issued by NWS North Platte, NE

Home | Current Version | Previous Version | Text Only | Print | Product List | Glossary On
Versions: 1 2 3 4 5 6 7 8 9 10 11 12 13 14 15 16 17 18 19 20 21 22 23 24 25 26 27 28 29 30 31 32 33 34 35 36 37 38 39 40 41 42 43 44 45 46 47 48 49 50
000
AXUS43 KLBF 201010
MISLBF


WESTERN AND NORTH CENTRAL NEBRASKA HOURLY WEATHER ROUNDUP
NATIONAL WEATHER SERVICE NORTH PLATTE NE
400 AM CST SAT DEC 20 2014

***STATIONS NOT REPORTING VARIABLES SUCH AS SKY/WEATHER OR
PRESSURE ARE PROVIDED BY THE NEBRASKA DEPARTMENT OF
ROADS...RAWS...AND APRS NETWORKS...AND ARE NOT UNDER
NATIONAL WEATHER SERVICE QUALITY CONTROL***

...OBSERVATIONS IN AND NEAR THE EASTERN PANHANDLE OF NEBRASKA...

CITY           SKY/WX    TMP DP  RH WIND       PRES   REMARKS
PINE RIDGE     CLEAR     22  16  78 W8        29.94S WCI  12
CHADRON        PTCLDY    13  10  88 W6        29.95S WCI   4
ALLIANCE       PTCLDY     9   6  88 CALM      29.96S
SIDNEY         CLEAR     18  13  80 W9        29.99S WCI   7
WHITECLAY        N/A     18  12  79 SE3         N/A
CRESCENT LAKE    N/A     22  18  85 CALM        N/A
LISCO            N/A     15  10  81 CALM        N/A
BIG SPRINGS      N/A     19  17  90 W7          N/A  WCI  10
$$

...OBSERVATIONS IN NORTH CENTRAL NEBRASKA...

CITY           SKY/WX    TMP DP  RH WIND       PRES   REMARKS
VALENTINE      CLEAR     14  11  87 SW5       29.97F WCI   6
THEDFORD       CLEAR     20  18  88 CALM      29.99F
AINSWORTH      CLEAR     23  18  83 SW3       29.97F
O`NEILL        FOG      N/A N/A N/A CALM      30.02S VSB 1/4
BROKEN BOW     CLEAR     19  16  88 CALM      30.00F
BROWNLEE         N/A     22  16  76 SW5         N/A  WCI  16
SPRINGVIEW       N/A     10   7  89 CALM        N/A
BREWSTER         N/A     20  20  96 CALM        N/A
ROSE             N/A     22  22 100 MISG        N/A
SARGENT          N/A     13  11  92 CALM        N/A
COMSTOCK         N/A     21  20  93 CALM        N/A
CHAMBERS         N/A     20  19  96 CALM        N/A
EWING            N/A     26  25  97 S3          N/A
$$

...OBSERVATIONS IN SOUTHWEST NEBRASKA AND FAR NORTHEAST COLORADO...

CITY           SKY/WX    TMP DP  RH WIND       PRES   REMARKS
HOLYOKE        FAIR      21  18  86 W5        30.01S WCI  15
IMPERIAL       PTCLDY    22  16  78 CALM      30.02S
OGALLALA       CLEAR     15  13  92 W6        30.01F WCI   6
NORTH PLATTE   CLEAR     17  14  88 NW5       30.03R FOG     WCI  10
MCCOOK         CLEAR     24  22  91 W5        30.04S WCI  18
LEXINGTON      CLEAR     23  21  92 W9        30.03S FOG     WCI  13
PAXTON           N/A     19  16  88 CALM        N/A
BRADY            N/A     22  19  87 CALM        N/A
GOTHENBURG       N/A     22  19  88 NW3         N/A
CALLAWAY         N/A     21  18  89 CALM        N/A
$$

...NORTH PLATTE AREA...

CITY           SKY/WX    TMP DP  RH WIND       PRES   REMARKS
AIRPORT        CLEAR     17  14  88 NW5       30.03R FOG     WCI  10
DOWNTOWN         N/A     21  19  91 CALM        N/A
$$

...SOME WEATHER OBSERVATIONS FROM AROUND THE REGION...

CITY           SKY/WX    TMP DP  RH WIND       PRES   REMARKS
DENVER         PTCLDY    31  16  54 SW10      29.99S WCI  22
LARAMIE        PTCLDY    26  15  63 SW15      30.00F WCI  14
CHEYENNE       CLEAR     34  17  50 VRB7      29.96S WCI  28
SCOTTSBLUFF    PTCLDY    15  11  83 CALM      29.97S
RAPID CITY     CLEAR     30  18  60 NW6       29.90R WCI  24
PIERRE         FOG       16  12  84 E3        29.95F VSB<1/4
WINNER         FAIR      23  15  71 S3        29.97S
SIOUX FALLS    CLOUDY    31  29  92 S7        30.06S WCI  24
OMAHA          FRZ DRZL  31  30  96 SE10      30.13F FOG     WCI  22
GRAND ISLAND   CLOUDY    30  30 100 CALM      30.05S FOG
KANSAS CITY    CLOUDY    32  31  96 S5        30.19F FOG     WCI  27
WICHITA        PTCLDY    34  31  88 S10       30.15F WCI  26
HAYS           CLEAR     27  19  74 S3        30.07F
LIBERAL        CLEAR     30  27  86 SW10      30.11S WCI  21
GOODLAND       PTCLDY    29  26  89 W9        30.03S WCI  20
$$



USA.gov is the U.S. government's official web portal to all federal, state and local government web resources and services.